FW7886 Weather Reports


time (UTC)temp
C
wind
direction
speed
KPH
gust
KPH
rain 1hr
cm
rain 24hr
cm
rain mn
cm
humidity
%
barometer
mb
20260509160925 18 270 3.2 8.0 0.03 13.41 4.80 100 1012.2
20260509160647 18 267 3.2 8.0 0.00 13.39 4.78 100 1012.0
20260509155927 18 255 1.6 8.0 0.00 13.39 4.78 100 1012.0
20260509155425 18 181 0.0 3.2 0.00 13.39 4.78 100 1012.0
20260509154928 18 178 1.6 4.8 0.00 13.39 4.78 100 1012.2
20260509154426 18 275 1.6 6.4 0.00 13.39 4.78 100 1012.1
20260509153926 18 287 3.2 8.0 0.00 13.39 4.78 100 1012.1
20260509153427 18 265 3.2 8.0 0.00 13.39 4.78 100 1012.4
20260509152925 18 269 1.6 6.4 0.00 13.39 4.78 100 1012.4
20260509152425 18 265 1.6 3.2 0.00 13.39 4.78 100 1012.1
20260509151925 18 265 1.6 3.2 0.08 13.39 4.78 100 1012.2
20260509151427 18 265 1.6 4.8 0.13 13.39 4.78 100 1012.2
20260509150921 18 267 1.6 4.8 0.20 13.39 4.78 100 1012.2
20260509150423 18 285 1.6 4.8 0.25 13.39 4.78 100 1011.8
20260509145923 18 264 3.2 6.4 0.28 13.39 4.78 100 1011.7
20260509145422 18 233 4.8 6.4 0.36 13.39 4.78 100 1012.0
20260509144922 18 298 3.2 6.4 0.48 13.39 4.78 100 1012.0
20260509144421 18 271 4.8 9.7 0.53 13.39 4.78 100 1011.8
20260509143922 18 318 4.8 9.7 0.53 13.39 4.78 100 1011.8
20260509143421 18 272 4.8 9.7 0.61 13.39 4.78 100 1011.6
20260509142921 18 273 4.8 9.7 0.71 13.39 4.78 100 1011.5
20260509142424 18 271 3.2 8.0 0.89 13.39 4.78 100 1011.5
20260509141920 18 272 3.2 6.4 1.09 13.31 4.72 100 1011.4
20260509141419 18 260 3.2 6.4 1.42 13.26 4.65 100 1011.5
20260509140920 18 283 3.2 8.0 1.60 13.18 4.60 100 1011.6
20260509140414 18 305 3.2 8.0 1.91 13.13 4.52 100 1011.6
20260509135908 18 267 3.2 8.0 2.01 13.11 4.50 100 1012.1
20260509135402 18 319 1.6 6.4 2.01 13.03 4.45 100 1011.9
20260509134857 18 170 3.2 9.7 1.91 12.88 4.29 100 1011.5
20260509134350 18 265 1.6 9.7 1.91 12.85 4.24 100 1011.4
20260509133844 18 215 1.6 4.8 1.93 12.85 4.24 100 1011.4
20260509133338 18 278 1.6 4.8 1.91 12.78 4.17 100 1011.8
20260509133105 18 260 1.6 4.8 1.93 12.65 4.06 100 1012.0
20260509132325 18 296 0.0 4.8 2.16 12.45 3.84 100 1011.9
20260509131820 18 163 0.0 1.6 2.36 12.14 3.56 100 1012.1
20260509131314 18 162 0.0 1.6 2.36 11.79 3.20 100 1011.8
20260509130808 18 169 0.0 1.6 2.34 11.46 2.90 100 1012.2
20260509130302 18 169 0.0 3.2 2.46 11.20 2.62 100 1012.0
20260509125756 18 214 1.6 4.8 2.39 11.07 2.46 100 1011.6
20260509125250 18 225 1.6 4.8 2.36 11.00 2.41 99 1011.6
20260509124743 18 226 1.6 4.8 2.34 10.97 2.36 99 1011.5
20260509124238 18 183 1.6 4.8 2.31 10.95 2.34 99 1011.4
20260509123733 18 179 1.6 3.2 2.29 10.92 2.31 99 1011.2
20260509123226 18 242 1.6 8.0 2.21 10.85 2.24 99 1011.7
20260509122720 18 241 1.6 8.0 2.01 10.64 2.03 99 1012.0
20260509122214 18 248 1.6 8.0 1.57 10.21 1.60 98 1012.1
20260509121935 18 167 3.2 8.0 1.04 9.68 1.12 98 1011.9
20260509121202 18 179 4.8 17.7 0.64 9.27 0.74 98 1011.9
20260509120655 19 150 4.8 17.7 0.41 9.04 0.46 97 1011.7
20260509120150 20 210 4.8 16.1 0.08 8.71 0.13 96 1011.7
20260509115644 21 96 1.6 16.1 0.03 8.66 0.05 96 1011.6
20260509115138 21 172 0.0 3.2 0.00 8.64 0.03 99 1011.3
20260509114632 21 281 0.0 1.6 0.00 8.64 0.03 99 1010.7
20260509114348 21 284 0.0 1.6 0.00 8.64 0.03 99 1010.3
20260509113625 21 284 0.0 1.6 0.00 8.64 0.03 99 1010.1
20260509113114 21 284 0.0 1.6 0.00 8.64 0.03 98 1010.0
20260509112832 21 284 1.6 4.8 0.00 8.64 0.03 98 1009.8
20260509112102 21 284 1.6 4.8 0.00 8.64 0.03 98 1009.7
20260509111555 21 65 1.6 4.8 0.00 8.64 0.03 98 1009.6
20260509111050 21 332 1.6 6.4 0.00 8.64 0.03 98 1009.6
20260509110804 21 274 3.2 6.4 0.00 8.64 0.03 98 1009.2
20260509110044 21 277 3.2 6.4 0.00 8.64 0.03 98 1009.1
20260509105544 21 299 3.2 4.8 0.00 8.64 0.03 98 1008.9
20260509105044 21 274 3.2 4.8 0.00 8.64 0.03 98 1008.6
20260509104543 21 317 4.8 11.3 0.00 8.64 0.03 98 1008.8
20260509104043 21 281 4.8 11.3 0.00 8.64 0.03 98 1008.9
20260509103547 21 300 4.8 11.3 0.00 8.64 0.03 98 1008.7
20260509103045 21 338 3.2 8.0 0.00 8.64 0.03 98 1009.0
20260509102804 21 267 3.2 6.4 0.00 8.64 0.03 98 1009.0
20260509102044 21 272 3.2 6.4 0.00 8.64 0.03 98 1009.2
20260509101541 21 302 3.2 6.4 0.00 8.64 0.03 99 1009.1
20260509101041 21 294 3.2 6.4 0.00 8.64 0.03 99 1009.2
20260509101021 21 36 1.6 6.4 0.00 8.64 0.03 99 1009.0
20260509100042 21 263 1.6 3.2 0.00 8.64 0.03 99 1009.0
20260509095541 21 263 3.2 8.0 0.00 8.64 0.03 99 1008.8
20260509095041 21 311 3.2 8.0 0.00 8.64 0.03 99 1008.5
20260509094542 21 103 1.6 4.8 0.00 8.64 0.03 99 1008.5
20260509094045 21 214 3.2 4.8 0.00 8.64 0.03 99 1008.4
20260509093539 21 242 3.2 4.8 0.00 8.64 0.03 99 1008.1
20260509093039 21 246 3.2 4.8 0.00 8.64 0.03 99 1008.3
20260509092538 21 245 1.6 4.8 0.00 8.64 0.03 99 1008.4
20260509092036 21 245 0.0 3.2 0.00 8.64 0.03 99 1008.6
20260509091534 21 245 0.0 3.2 0.00 8.64 0.03 99 1008.7
20260509091035 21 260 1.6 4.8 0.00 8.64 0.03 99 1008.6
20260509090757 21 260 3.2 6.4 0.00 8.64 0.03 99 1008.6
20260509090032 21 272 3.2 6.4 0.00 8.64 0.03 99 1008.6
20260509085529 21 260 3.2 6.4 0.00 8.64 0.03 99 1008.8
20260509085029 21 261 3.2 6.4 0.00 8.64 0.03 99 1008.9
20260509084530 21 261 3.2 8.0 0.00 8.64 0.03 99 1009.0
20260509084026 21 304 3.2 8.0 0.00 8.64 0.03 99 1009.2
20260509083526 21 256 4.8 8.0 0.00 8.64 0.03 99 1009.4
20260509083028 21 310 4.8 8.0 0.00 8.64 0.03 100 1009.3
20260509082527 21 272 4.8 8.0 0.00 8.64 0.03 100 1009.4
20260509082027 21 337 4.8 8.0 0.00 8.64 0.03 100 1009.4
20260509081748 21 309 3.2 6.4 0.00 8.64 0.03 100 1009.4
20260509081024 20 264 3.2 6.4 0.00 8.64 0.03 100 1009.6
20260509080522 20 272 3.2 6.4 0.00 8.64 0.03 100 1009.7
20260509080246 20 272 3.2 6.4 0.00 8.64 0.03 100 1009.6
20260509075521 20 239 1.6 6.4 0.00 8.64 0.03 100 1009.7
20260509075019 20 274 3.2 6.4 0.00 8.64 0.03 100 1009.8
20260509074520 20 288 3.2 6.4 0.00 8.64 0.03 100 1009.8
20260509074018 20 310 3.2 6.4 0.00 8.64 0.03 100 1009.8
20260509073523 20 272 4.8 9.7 0.00 8.64 0.03 100 1010.0
20260509073019 20 262 6.4 9.7 0.00 8.64 0.03 100 1010.1
20260509072518 20 278 3.2 9.7 0.00 8.64 0.03 100 1010.0
20260509072018 20 284 1.6 4.8 0.00 8.64 0.03 100 1010.7
20260509071519 20 176 0.0 8.0 0.00 8.64 0.03 100 1011.1
20260509071017 20 137 0.0 8.0 0.00 8.64 0.03 100 1011.4
20260509070516 20 126 1.6 8.0 0.00 8.64 0.03 100 1011.1
20260509070015 20 241 3.2 8.0 0.00 8.64 0.03 100 1010.4
20260509065516 20 269 3.2 6.4 0.00 8.64 0.03 100 1010.4
20260509065014 20 270 0.0 4.8 0.00 8.64 0.03 100 1010.4
20260509064516 20 182 0.0 1.6 0.00 8.64 0.03 100 1010.6
20260509064015 20 182 0.0 1.6 0.00 8.64 0.03 100 1010.7
20260509063515 20 182 0.0 1.6 0.00 8.64 0.03 100 1010.8
20260509063245 20 182 0.0 1.6 0.00 8.64 0.03 100 1010.8
20260509062516 20 182 0.0 0.0 0.03 8.64 0.03 100 1010.9
20260509062014 20 182 0.0 0.0 0.03 8.64 0.03 100 1011.1
20260509061741 20 182 0.0 0.0 0.03 8.64 0.03 100 1011.1
20260509061014 20 182 0.0 0.0 0.03 8.64 0.03 100 1011.1
20260509060516 20 182 0.0 0.0 0.03 8.64 0.03 100 1011.1
20260509060016 20 182 0.0 1.6 0.03 8.64 0.03 100 1011.3
20260509055516 20 167 0.0 1.6 0.03 8.64 0.03 100 1011.4
20260509055012 20 165 0.0 1.6 0.03 8.64 0.03 100 1011.2
20260509054513 20 56 0.0 0.0 0.03 8.64 0.03 100 1011.2
20260509054012 20 57 0.0 0.0 0.03 8.64 0.03 99 1011.1
20260509053514 20 57 0.0 1.6 0.03 8.64 0.03 99 1011.1
20260509053013 20 57 0.0 3.2 0.03 8.64 0.03 99 1011.1
20260509052512 20 57 0.0 3.2 0.00 8.61 0.00 99 1011.0
20260509052007 20 57 0.0 0.0 0.00 8.61 0.00 99 1011.1
20260509051506 20 57 0.0 0.0 0.00 8.61 0.00 99 1011.6
20260509051005 20 57 0.0 0.0 0.00 8.61 0.00 99 1011.8
20260509050503 20 57 0.0 1.6 0.03 8.61 0.00 99 1012.0
20260509050224 20 57 1.6 4.8 0.56 8.61 8.61 99 1011.8
20260509045720 20 54 1.6 4.8 1.04 8.61 8.61 99 1011.7
20260509045217 20 89 1.6 3.2 1.04 8.61 8.61 99 1011.5
20260509044455 21 89 1.6 4.8 1.04 8.61 8.61 98 1011.7
20260509043956 21 89 1.6 4.8 1.04 8.61 8.61 98 1011.6
20260509043456 21 80 3.2 6.4 1.04 8.61 8.61 98 1011.3
20260509042952 21 65 3.2 9.7 1.04 8.61 8.61 98 1011.2
20260509042454 21 30 6.4 14.5 1.04 8.61 8.61 98 1011.0
20260509041953 21 273 9.7 14.5 1.04 8.61 8.61 98 1010.7
20260509041454 21 284 8.0 16.1 1.04 8.61 8.61 99 1010.9
20260509040953 20 277 4.8 16.1 1.04 8.61 8.61 100 1010.7
20260509040454 20 263 4.8 16.1 1.02 8.59 8.61 100 1011.3
20260509035956 20 261 3.2 16.1 0.48 8.05 8.10 100 1012.1
20260509035721 20 165 1.6 9.7 0.00 7.57 7.57 100 1013.1
20260509034956 20 120 0.0 3.2 0.00 7.57 7.57 100 1012.2
20260509034445 20 119 0.0 1.6 0.00 7.57 7.57 100 1011.5
20260509033947 20 120 0.0 1.6 0.00 7.57 7.57 100 1011.5
20260509033441 20 257 0.0 1.6 0.00 7.57 7.57 100 1011.3
20260509032934 20 257 0.0 1.6 0.00 7.57 7.57 100 1011.5
20260509032429 20 257 0.0 1.6 0.00 7.57 7.57 100 1011.7
20260509031923 20 257 0.0 1.6 0.00 7.57 7.57 100 1011.4
20260509031417 20 257 0.0 1.6 0.00 7.57 7.57 100 1011.2
20260509031143 20 257 0.0 1.6 0.00 7.57 7.57 100 1011.3
20260509030402 20 257 1.6 4.8 0.00 7.57 7.57 100 1011.3
20260509025856 20 257 3.2 4.8 0.00 7.57 7.57 100 1011.1
20260509025349 20 258 1.6 4.8 0.00 7.57 7.57 100 1011.0
20260509024844 20 270 1.6 4.8 0.00 7.57 7.57 100 1011.1
20260509024344 20 269 3.2 4.8 0.00 7.57 7.57 100 1010.9
20260509023841 20 277 1.6 4.8 0.00 7.57 7.57 100 1010.5
20260509023339 20 260 0.0 3.2 0.00 7.57 7.57 100 1010.7
20260509022840 20 260 0.0 1.6 0.00 7.57 7.57 100 1010.8
20260509022652 20 260 0.0 1.6 0.00 7.57 7.57 100 1010.8
20260509022602 20 260 0.0 1.6 0.00 7.57 7.57 100 1010.9
20260509021335 20 260 0.0 0.0 0.00 7.57 7.57 100 1011.0
20260509020834 20 260 1.6 3.2 0.00 7.57 7.57 100 1011.1
20260509020555 20 260 1.6 3.2 0.00 7.57 7.57 100 1010.8
20260509020057 20 260 1.6 3.2 0.00 7.57 7.57 100 1010.6
20260509015332 20 260 1.6 3.2 0.00 7.57 7.57 100 1010.6
20260509014834 20 260 1.6 4.8 0.00 7.57 7.57 100 1010.7
20260509014330 20 260 3.2 6.4 0.00 7.57 7.57 100 1010.7
20260509013830 20 265 3.2 6.4 0.00 7.57 7.57 100 1010.6
20260509013329 20 267 1.6 4.8 0.00 7.57 7.57 100 1010.5
20260509012828 20 265 1.6 1.6 0.00 7.57 7.57 100 1011.1
20260509012329 20 265 1.6 3.2 0.00 7.57 7.57 100 1010.8
20260509011830 20 265 3.2 4.8 0.00 7.57 7.57 100 1010.7
20260509011329 20 269 1.6 4.8 0.00 7.57 7.57 100 1010.7
20260509010828 20 283 1.6 3.2 0.00 7.57 7.57 100 1010.9
20260509010329 20 270 0.0 1.6 0.00 7.57 7.57 100 1011.0
20260509005830 20 271 0.0 3.2 0.00 7.57 7.57 100 1011.1
20260509005329 20 271 1.6 3.2 0.00 7.57 7.57 100 1010.9
20260509004828 20 271 1.6 3.2 0.00 7.57 7.57 100 1010.5
20260509004330 20 274 0.0 3.2 0.00 7.57 7.57 100 1010.5
20260509003829 20 259 0.0 1.6 0.00 7.57 7.57 100 1010.6
20260509003326 20 259 0.0 4.8 0.00 7.57 7.57 100 1010.6
20260509002825 20 259 1.6 6.4 0.00 7.57 7.57 100 1010.6
20260509002324 20 270 3.2 8.0 0.00 7.57 7.57 100 1010.3
20260509001826 20 305 6.4 11.3 0.03 7.57 7.57 100 1010.3
20260509001328 20 325 8.0 12.9 0.05 7.57 7.57 100 1010.0
20260509000822 20 292 4.8 12.9 0.18 7.57 7.57 100 1010.0
20260509000322 20 308 0.0 6.4 0.18 7.57 7.57 100 1010.6
20260508235823 20 164 0.0 0.0 0.23 7.57 7.57 100 1010.9
20260508235317 20 164 0.0 3.2 0.25 7.57 7.57 100 1010.8
20260508234811 20 163 0.0 3.2 0.36 7.57 7.57 100 1010.8
20260508234305 20 191 1.6 3.2 0.38 7.57 7.57 100 1010.9
20260508233759 20 213 0.0 3.2 0.38 7.57 7.57 100 1010.8
20260508233253 20 149 0.0 3.2 0.38 7.57 7.57 100 1011.1
20260508232747 20 193 0.0 3.2 0.38 7.57 7.57 100 1010.9
20260508232241 20 183 0.0 3.2 0.38 7.57 7.57 100 1011.1
20260508231735 20 176 0.0 4.8 0.36 7.54 7.54 100 1010.9
20260508231229 20 246 0.0 4.8 0.30 7.49 7.52 100 1010.9
20260508230723 20 141 0.0 3.2 0.20 7.39 7.39 100 1010.9
20260508230217 20 182 3.2 11.3 0.20 7.39 7.39 100 1011.2
20260508225711 20 279 4.8 11.3 0.15 7.34 7.34 100 1010.9
20260508225204 20 274 3.2 8.0 0.10 7.29 7.32 100 1010.8
20260508224659 20 261 1.6 4.8 0.00 7.19 7.19 100 1011.2
20260508224153 20 253 0.0 3.2 0.03 7.19 7.19 100 1011.3
20260508223647 20 253 0.0 1.6 0.10 7.19 7.19 100 1011.3
20260508223141 20 253 0.0 1.6 0.13 7.19 7.19 100 1011.4
20260508222635 20 253 0.0 1.6 0.15 7.19 7.19 100 1011.3
20260508222129 20 253 0.0 0.0 0.18 7.19 7.19 100 1011.4
20260508221623 20 253 0.0 0.0 0.20 7.19 7.19 100 1011.3
20260508221603 20 253 1.6 4.8 0.25 7.19 7.19 100 1011.2
20260508220833 20 253 3.2 4.8 0.25 7.19 7.19 100 1011.3
20260508220105 20 267 3.2 4.8 0.28 7.19 7.19 100 1011.2
20260508215558 20 246 1.6 4.8 0.33 7.19 7.19 100 1011.5
20260508215052 20 274 3.2 6.4 0.38 7.19 7.19 100 1011.5
20260508214547 20 272 4.8 8.0 0.41 7.19 7.19 100 1011.6
20260508214041 20 301 4.8 8.0 0.36 7.14 7.16 100 1011.5
20260508213535 20 259 3.2 6.4 0.30 7.09 7.09 100 1011.8
20260508213304 20 309 3.2 6.4 0.28 7.06 7.06 100 1012.1
20260508212523 20 303 3.2 6.4 0.28 7.04 7.04 100 1012.1
20260508212234 20 40 3.2 4.8 0.28 7.01 7.01 100 1012.1
20260508211511 19 253 3.2 4.8 0.23 6.96 6.96 100 1012.0
20260508211006 19 52 4.8 11.3 0.23 6.93 6.93 100 1012.1
20260508210459 19 292 4.8 11.3 0.20 6.91 6.93 100 1011.8
20260508205953 19 281 3.2 8.0 0.18 6.88 6.88 100 1011.8
20260508205447 19 304 3.2 4.8 0.15 6.83 6.83 100 1012.0
20260508204941 19 41 3.2 8.0 0.13 6.81 6.81 100 1012.0
20260508204435 19 266 3.2 8.0 0.10 6.78 6.78 100 1011.9
20260508203929 19 75 4.8 9.7 0.10 6.78 6.78 100 1011.8
20260508203645 19 289 6.4 11.3 0.13 6.78 6.78 100 1011.6
20260508202917 19 289 6.4 11.3 0.13 6.76 6.76 100 1011.5
20260508202411 19 284 4.8 9.7 0.18 6.76 6.76 100 1011.3
20260508201905 19 274 3.2 9.7 0.25 6.73 6.73 100 1011.4
20260508201359 18 267 1.6 8.0 0.36 6.73 6.73 100 1011.4
20260508200852 18 187 1.6 6.4 0.43 6.71 6.71 100 1011.3
20260508200347 18 128 1.6 8.0 0.53 6.71 6.71 100 1011.4
20260508195842 18 265 1.6 9.7 0.64 6.71 6.71 100 1011.5
20260508195335 18 262 3.2 9.7 0.69 6.68 6.68 100 1011.5
20260508194830 18 59 6.4 17.7 0.71 6.68 6.68 100 1011.2
20260508194330 18 263 4.8 17.7 0.76 6.68 6.68 100 1011.4
20260508193831 18 236 3.2 9.7 0.76 6.68 6.68 99 1011.7
20260508193328 18 262 3.2 9.7 1.22 6.65 6.65 100 1012.5
20260508192827 18 279 1.6 8.0 1.60 6.63 6.63 100 1013.3
20260508192329 18 323 0.0 6.4 2.06 6.58 6.58 100 1013.4
20260508191827 18 120 0.0 1.6 2.57 6.45 6.45 99 1013.9
20260508191325 18 112 0.0 8.0 3.20 6.38 6.40 99 1014.0
20260508190826 18 112 1.6 8.0 3.48 6.27 6.27 99 1014.1
20260508190323 18 130 1.6 8.0 3.43 6.17 6.17 99 1013.8
20260508185824 18 128 1.6 8.0 3.33 6.07 6.10 99 1013.4
20260508185324 18 138 0.0 6.4 3.30 5.99 6.02 99 1013.8
20260508184825 18 151 0.0 3.2 3.28 5.94 5.97 99 1013.7
20260508184324 18 151 1.6 11.3 3.30 5.92 5.94 99 1013.4
20260508183824 18 113 1.6 11.3 3.35 5.92 5.92 99 1013.0
20260508183324 18 265 3.2 11.3 3.05 5.44 5.51 99 1012.8
20260508182825 18 264 3.2 11.3 2.79 5.03 5.03 99 1013.1
20260508182550 18 177 3.2 11.3 2.34 4.52 4.57 99 1013.8
20260508181823 18 171 4.8 14.5 1.68 3.73 3.89 99 1013.6
20260508181323 18 191 6.4 14.5 1.52 3.17 3.17 99 1013.1
20260508181050 18 103 4.8 14.5 1.47 2.79 2.82 98 1013.5
20260508180325 18 100 3.2 11.3 2.03 2.74 2.74 98 1012.8
20260508175824 18 87 1.6 9.7 2.29 2.74 2.74 98 1012.6
20260508175323 18 142 1.6 8.0 2.41 2.69 2.69 98 1012.5
20260508174823 19 141 0.0 4.8 2.62 2.67 2.67 99 1012.5
20260508174323 19 123 0.0 4.8 2.59 2.62 2.62 99 1012.8
20260508173824 19 147 0.0 4.8 2.57 2.57 2.57 99 1012.8
20260508173551 19 142 1.6 4.8 2.39 2.39 2.44 99 1013.3
20260508172821 19 128 1.6 4.8 2.24 2.24 2.26 99 1013.1
20260508172321 19 176 3.2 12.9 2.18 2.18 2.21 98 1012.7
20260508171819 19 309 4.8 12.9 2.06 2.06 2.08 99 1012.8
20260508171317 19 189 6.4 22.5 1.65 1.65 1.70 98 1012.4
20260508171037 19 48 8.0 22.5 1.32 1.32 1.32 98 1012.3
20260508170318 19 7 4.8 12.9 0.71 0.71 0.79 98 1012.3
20260508165817 19 79 4.8 17.7 0.46 0.46 0.48 97 1012.5
20260508165319 19 188 3.2 17.7 0.28 0.28 0.30 97 1012.5
20260508164811 19 118 3.2 17.7 0.05 0.05 0.05 96 1012.3
20260508164540 20 284 4.8 17.7 0.03 0.03 0.03 96 1011.6
20260508164031 20 130 3.2 11.3 0.00 0.00 0.00 95 1011.8
20260508163310 20 185 3.2 8.0 0.00 0.00 0.00 95 1012.0
20260508162810 20 226 3.2 9.7 0.00 0.00 0.00 94 1011.9
20260508162310 20 149 3.2 9.7 0.00 0.00 0.00 93 1012.2
20260508161811 21 204 3.2 9.7 0.00 0.00 0.00 92 1012.6
20260508161525 21 236 3.2 9.7 0.00 0.00 0.00 91 1012.3